Location: Shenandoah County Park
(38.9356°N, 78.4524°W)
Time: 04:27:07
(UTC-05:00)

S-56A Canister/Altair - All Passes

Search period start: 28 January 2023 00:00
Search period end: 07 February 2023 00:00
Orbit: 638 x 2493 km, 38.9° (Epoch: 26 January)

Date Brightness Start Highest point End Pass type
(mag) Time Alt. Az. Time Alt. Az. Time Alt. Az.
28 Jan - 11:49:54 10° SSW 11:54:14 31° SE 11:59:52 10° E daylight
28 Jan - 13:51:56 10° WSW 13:57:38 81° SSE 14:06:19 10° E daylight
28 Jan - 15:55:09 10° W 16:02:19 86° S 16:13:28 10° ESE daylight
28 Jan - 17:58:46 10° W 18:07:27 55° SSW 18:20:02 10° SE visible
28 Jan - 20:04:18 10° W 20:12:36 24° SW 20:22:44 10° S visible
29 Jan - 11:17:49 10° SSW 11:21:44 25° SE 11:26:31 10° E daylight
29 Jan - 13:19:32 10° WSW 13:24:53 76° SSE 13:32:48 10° E daylight
29 Jan - 15:22:40 10° W 15:29:20 88° S 15:39:42 10° E daylight
29 Jan - 17:26:09 10° W 17:34:17 58° SSW 17:46:25 10° SE daylight
29 Jan - 19:31:10 10° W 19:39:23 27° SW 19:49:46 10° SSE visible
30 Jan - 10:45:50 10° S 10:49:14 20° SE 10:53:10 10° E daylight
30 Jan - 12:47:09 10° WSW 12:52:12 70° SSE 12:59:24 10° E daylight
30 Jan - 14:50:13 10° W 14:56:25 89° S 15:06:01 10° E daylight
30 Jan - 16:53:34 10° W 17:01:12 61° SSW 17:12:46 10° SE daylight
30 Jan - 18:58:11 10° W 19:06:11 29° SW 19:16:40 10° SSE visible
31 Jan - 10:13:59 10° S 10:16:44 16° SE 10:19:45 10° ESE daylight
31 Jan - 12:14:47 10° WSW 12:19:34 63° SSE 12:26:06 10° E daylight
31 Jan - 14:17:46 10° W 14:23:34 90° NE 14:32:24 10° E daylight
31 Jan - 16:21:02 10° W 16:28:10 64° SSW 16:39:07 10° ESE daylight
31 Jan - 18:25:18 10° W 18:33:02 31° SSW 18:43:28 10° SSE visible
01 Feb - 09:42:26 10° SSE 09:44:14 12° SE 09:46:08 10° ESE daylight
01 Feb - 11:42:25 10° SW 11:46:58 55° SSE 11:52:53 10° E daylight
01 Feb - 13:45:20 10° W 13:50:47 90° NNE 13:58:51 10° E daylight
01 Feb - 15:48:32 10° W 15:55:12 68° SSW 16:05:29 10° ESE daylight
01 Feb - 17:52:31 10° W 17:59:56 33° SSW 18:10:12 10° SSE visible
02 Feb - 11:10:04 10° SW 11:14:25 47° SSE 11:19:47 10° E daylight
02 Feb - 13:12:55 10° W 13:18:02 90° SE 13:25:26 10° E daylight
02 Feb - 15:16:04 10° W 15:22:18 71° SSW 15:31:52 10° ESE daylight
02 Feb - 17:19:49 10° W 17:26:53 35° SSW 17:36:52 10° SSE daylight
02 Feb - 19:28:46 10° WSW 19:31:37 11° SW 19:34:43 10° SSW visible
03 Feb - 10:37:42 10° SW 10:41:53 40° SSE 10:46:45 10° E daylight
03 Feb - 12:40:29 10° W 12:45:20 88° S 12:52:06 10° E daylight
03 Feb - 14:43:38 10° W 14:49:28 74° SSW 14:58:20 10° ESE daylight
03 Feb - 16:47:11 10° W 16:53:53 37° SSW 17:03:31 10° SE daylight
03 Feb - 18:54:40 10° WSW 18:58:33 13° SW 19:02:55 10° SSW visible
04 Feb - 10:05:21 10° SW 10:09:22 34° SSE 10:13:47 10° E daylight
04 Feb - 12:08:01 10° W 12:12:42 86° S 12:18:53 10° E daylight
04 Feb - 14:11:12 10° W 14:16:41 78° SSW 14:24:50 10° ESE daylight
04 Feb - 16:14:37 10° W 16:20:56 40° SSW 16:30:10 10° SE daylight
04 Feb - 18:21:08 10° WSW 18:25:31 14° SW 18:30:38 10° S visible
05 Feb - 09:32:59 10° SSW 09:36:52 28° SSE 09:40:53 10° E daylight
05 Feb - 11:35:33 10° WSW 11:40:05 82° S 11:45:47 10° E daylight
05 Feb - 13:38:46 10° W 13:43:56 81° S 13:51:26 10° ESE daylight
05 Feb - 15:42:05 10° W 15:48:04 42° SSW 15:56:48 10° SE daylight
05 Feb - 17:47:53 10° WSW 17:52:31 16° SW 17:58:04 10° S daylight
06 Feb - 09:00:37 10° SSW 09:04:21 24° SSE 09:08:00 10° E daylight
06 Feb - 11:03:03 10° WSW 11:07:30 76° SSE 11:12:46 10° E daylight
06 Feb - 13:06:20 10° W 13:11:15 84° S 13:18:06 10° E daylight
06 Feb - 15:09:35 10° W 15:15:14 45° SSW 15:23:28 10° SE daylight
06 Feb - 17:14:50 10° WSW 17:19:33 17° SW 17:25:21 10° S daylight
